Regional Weather Roundup
Issued by NWS

Home | Current Version | Previous Version | Graphics & Text | Print | Product List | Glossary Off
Versions: 1 2 3 4 5 6 7 8 9 10 11 12 13 14 15 16 17 18 19 20 21 22 23 24 25 26 27 28 29 30 31 32 33 34 35 36 37 38 39 40 41 42 43 44 45 46 47 48 49 50

000
ASUS43 KLSX 122207
RWRMO

WEATHER SUMMARY FOR MISSOURI
NATIONAL WEATHER SERVICE SPRINGFIELD MO
400 PM CST TUE DEC 12 2017

NOTE: "FAIR" INDICATES FEW OR NO CLOUDS BELOW 12,000 FEET WITH NO
       SIGNIFICANT WEATHER AND/OR OBSTRUCTIONS TO VISIBILITY.
       CURRENT SKY AND/OR WEATHER CONDITIONS ARE NOT AVAILABLE FOR
       CHILLICOTHE AND FARMINGTON.

MOZ001>031-035>038-043-044-053-054-122300-
...NORTHERN AND WESTERN MISSOURI...

CITY           SKY/WX    TMP DP  RH WIND       PRES   REMARKS
KANSAS CTY INT PTCLDY    39  21  48 W7        30.16F
KANSAS C DTWN  CLEAR     41  21  44 W5        30.18F
LEE`S SUMMIT   CLEAR     39  18  42 W7        30.17F
ST JOSEPH      MOCLDY    39  24  55 SW8       30.15F
CHILLICOTHE      N/A     36  14  40 VRB6      30.17F
KIRKSVILLE     CLEAR     32   8  36 W8        30.13F WCI  25

$$
MOZ066>068-077>081-088>096-101>105-122300-
...SOUTHWEST MISSOURI...

CITY           SKY/WX    TMP DP  RH WIND       PRES   REMARKS
SPRINGFIELD    CLEAR     39   8  27 W14       30.19F
JOPLIN         CLEAR     41  11  29 W10       30.23F
BRANSON        CLEAR     39  10  30 W3        30.21F

$$
MOZ032>034-039>042-045>050-055>058-069>072-122300-
...CENTRAL MISSOURI...

CITY           SKY/WX    TMP DP  RH WIND       PRES   REMARKS
COLUMBIA       CLEAR     35   2  24 W10       30.16F WCI  27
JEFFERSON CITY PTCLDY    37   4  25 W12       30.18F WCI  29
ROLLA          CLEAR     34   2  25 W12       30.16F WCI  25
WHITEMAN AFB   PTCLDY    38   6  25 W10       30.13F
WARRENSBURG    CLEAR     37  12  35 W8        30.18F
OSAGE BEACH    CLEAR     37   6  27 W8        30.19S

$$
MOZ051-052-059>065-122300-
...EAST CENTRAL MISSOURI...

CITY           SKY/WX    TMP DP  RH WIND       PRES   REMARKS
ST LOUIS INTL  MOCLDY    35   2  24 W14       30.15S WCI  26
SPIRIT OF STL  CLEAR     36   0  21 W12       30.15F WCI  28
ST CHARLES     CLEAR     36  -1  21 W9        30.15F WCI  29

$$
MOZ072>076-082>087-097>100-106>115-122300-
...SOUTH CENTRAL AND SOUTHEAST MISSOURI...

CITY           SKY/WX    TMP DP  RH WIND       PRES   REMARKS
CAPE GIRARDEAU CLEAR     39   6  25 NW13      30.15R
FARMINGTON     PTCLDY    35   2  24 NW10      30.15R WCI  27
POPLAR BLUFF   PTCLDY    43   8  23 NW12      30.15S
WEST PLAINS    CLEAR     41   5  22 VRB6      30.16F

$$


USA.gov is the U.S. government's official web portal to all federal, state and local government web resources and services.